Regional Weather Roundup
Issued by NWS

Home | Current Version | Previous Version | Graphics & Text | Print | Product List | Glossary Off
Versions: 1 2 3 4 5 6 7 8 9 10 11 12 13 14 15 16 17 18 19 20 21 22 23 24 25 26 27 28 29 30 31 32 33 34 35 36 37 38 39 40 41 42 43 44 45 46 47 48 49 50

000
ASUS43 KMPX 022001
RWRMN
WEATHER ROUNDUP FOR MINNESOTA
NATIONAL WEATHER SERVICE TWIN CITIES/CHANHASSEN MN
300 PM CDT MON MAY 02 2016


NOTE: "FAIR" INDICATES FEW OR NO CLOUDS BELOW 12,000 FEET WITH NO
SIGNIFICANT WEATHER AND/OR OBSTRUCTIONS TO VISIBILITY. N/A MEANS
CURRENT SKY AND/OR WEATHER CONDITIONS ARE NOT AVAILABLE.

MNZ060>063-068>070-022100-
   Twin Cities Metro

CITY           SKY/WX    TMP DP  RH WIND       PRES   REMARKS
TWIN CITIES    MOSUNNY   64  32  30 CALM      30.04F
ST PAUL        SUNNY     65  31  28 E3        30.05F
CRYSTAL        SUNNY     67  26  21 NW3       30.04F
EDEN PRAIRIE   SUNNY     66  29  24 CALM      30.04F
SOUTH ST PAUL  SUNNY     65  29  26 NE6       30.04F
LAKE ELMO      FAIR      63  32  31 CALM      30.05F
$$
MNZ001>005-007-008-013>017-022>024-027-028-022100-
   Northwest Minnesota

CITY           SKY/WX    TMP DP  RH WIND       PRES   REMARKS
BEMIDJI        SUNNY     65  25  22 SW3       29.99F
HALLOCK        PTSUNNY   70  25  18 CALM      29.97F
ROSEAU         SUNNY     68  23  18 NE6       29.99F
WARROAD        SUNNY     63  36  36 NE12      30.01F
THIEF RVR FALL MOSUNNY   66  25  20 CALM      30.00F
CROOKSTON      SUNNY     70  27  19 SW6       29.99F
FOSSTON        SUNNY     68  25  19 SW3       29.99F
DETROIT LAKES  SUNNY     64  28  25 SW7       30.02F
MOORHEAD       SUNNY     68  28  22 CALM      30.00S
PARK RAPIDS    SUNNY     66  26  22 S8        30.00F
MAHNOMEN       FAIR      67  30  25 S9        29.99F
$$
MNZ006-009>011-018-025>026-022100-
   North Central Minnesota

CITY           SKY/WX    TMP DP  RH WIND       PRES   REMARKS
BAUDETTE       SUNNY     66  25  21 SE8       30.01F
FLAG ISLAND    SUNNY     63  27  25 S3        30.00F
INTL FALLS     SUNNY     66  31  27 NE7       30.00F
WASKISH        SUNNY     63  30  29 W5        30.02S
BIG FORK       SUNNY     68  28  22 S5        30.00F
LONGVILLE      MOSUNNY   66  28  24 SW3       30.01F
GRAND RAPIDS   MOSUNNY   63  30  29 SE6       30.02F
CRANE LAKE     MOSUNNY   63  25  23 CALM      30.03S
ORR            PTSUNNY   63  25  23 CALM      29.99S
COOK           SUNNY     63  30  29 CALM      30.01F
WALKER         FAIR      63  28  26 E8        30.00F
$$
MNZ012-019>021-037-022100-
   Northeast Minnesota

CITY           SKY/WX    TMP DP  RH WIND       PRES   REMARKS
DULUTH         MOSUNNY   61  33  35 SE12G18   30.03F
ELY            SUNNY     64  25  22 SW10      30.01F
HIBBING        PTSUNNY   60  29  30 CALM      30.01F
EVELETH        SUNNY     61  30  31 S6        30.02F
DULUTH HARBOR  SUNNY     46  37  71 NE5       30.05F
TWO HARBORS    SUNNY     63  39  42 S12       30.02F
SILVER BAY     SUNNY     61  32  33 S10       30.03F
GRAND MARAIS     N/A     43  35  73 SE3       30.07F
G MARAIS ARPRT SUNNY     55  27  33 SE8       30.05F
$$
MNZ029>031-032-039>041-046>048-054>057-064-022100-
   West Central Minnesota

CITY           SKY/WX    TMP DP  RH WIND       PRES   REMARKS
FERGUS FALLS   SUNNY     66  32  28 CALM      29.98F
WHEATON        MOSUNNY   68  34  28 SW6       30.03S
MORRIS         SUNNY     70  32  24 SE7       30.01F
ALEXANDRIA     PTSUNNY   66  28  24 CALM      30.03F
ELBOW LAKE     FAIR      62  30  29 NW3       30.02F
WADENA         MOSUNNY   64  34  32 SE6       30.01F
GLENWOOD       MOSUNNY   64  28  25 E3        30.04S
APPLETON       MOSUNNY   64  25  22 CALM      30.02S
BENSON         MOSUNNY   66  27  22 SW6       30.03S
ORTONVILLE     PTSUNNY   66  30  26 E3        30.02S
MADISON        MOSUNNY   66  28  24 SW6       30.02F
WILLMAR        FAIR      66  34  30 CALM      30.04F
$$
MNZ033>034-036-042>043-049>051-058-059-022100-
   Central Minnesota

CITY           SKY/WX    TMP DP  RH WIND       PRES   REMARKS
ST CLOUD       MOSUNNY   65  30  27 S7        30.03F
SAUK CENTRE    FAIR      63  31  30 CALM      30.03F
PAYNESVILLE    PTSUNNY   65  30  26 S6        30.04F
AITKIN         PTSUNNY   70  23  17 S9        30.01F
PINE RIVER     PTSUNNY   64  36  34 SE6       30.04F
BRAINERD       CLOUDY    63  30  28 VRB7      30.02F
STAPLES        MOSUNNY   64  25  22 E5        30.01F
LONG PRAIRIE   CLOUDY    61  32  33 CALM      30.04S
LITTLE FALLS   MOSUNNY   64  30  27 SW8       30.03F
LITCHFIELD     MOSUNNY   66  34  30 SE6       30.04F
BUFFALO        MOSUNNY   64  31  29 N3        30.05F
MAPLE LAKE     SUNNY     66  36  32 CALM      30.06F
HUTCHINSON     MOSUNNY   66  38  36 N3        30.05F
$$
MNZ037-044-045-052-053-022100-
   East Central Minnesota

CITY           SKY/WX    TMP DP  RH WIND       PRES   REMARKS
PRINCETON      SUNNY     66  32  28 CALM      30.04F
MORA           SUNNY     64  34  32 CALM      30.05F
CAMBRIDGE      SUNNY     66  43  42 N6        30.02F
RUSH CITY      SUNNY     64  33  30 SE3       30.04F
MOOSE LAKE     SUNNY     63  30  29 E3        30.01F
HINCKLEY       FAIR      63  32  31 CALM      30.03F
CLOQUET        PTSUNNY   64  27  24 S9        30.02F
MCGREGOR       MOSUNNY   63  32  31 S7        30.02F
$$
MNZ071>073-080-081-089-090-097-098-022100-
   Southwest Minnesota

CITY           SKY/WX    TMP DP  RH WIND       PRES   REMARKS
MONTEVIDEO     MOSUNNY   72  36  26 CALM      30.05S
GRANITE FALLS  PTSUNNY   66  34  30 S5        30.05F
CANBY          MOSUNNY   67  35  30 CALM      30.04S
MARSHALL       PTSUNNY   63  33  32 E5        30.04F
REDWOOD FALLS  MOSUNNY   66  30  26 N6        30.03F
OLIVIA         MOSUNNY   63  32  31 CALM      30.03F
PIPESTONE      MOSUNNY   63  36  36 CALM      30.05F
WINDOM         SUNNY     63  30  29 CALM      30.05F
WORTHINGTON    SUNNY     61  36  39 VRB5      30.06F
JACKSON        PTSUNNY   61  34  36 SE6       30.07S
TRACY          SUNNY     65  34  32 NW5       30.04F
SLAYTON        PTSUNNY   61  32  34 N3        30.06F
$$
MNZ065>067-074>077-082>085-091>093-022100-
   South Central Minnesota

CITY           SKY/WX    TMP DP  RH WIND       PRES   REMARKS
MANKATO        SUNNY     63  34  34 S3        30.05F
NEW ULM        SUNNY     63  30  29 CALM      30.05F
ST JAMES       SUNNY     57  34  41 CALM      30.06F
FAIRMONT       SUNNY     61  36  39 CALM      30.06F
GLENCOE        PTSUNNY   65  39  38 N7        30.04F
OWATONNA       PTSUNNY   61  34  36 CALM      30.05F
WASECA         SUNNY     63  34  34 N3        30.06F
ALBERT LEA     PTSUNNY   61  37  41 CALM      30.06F
$$
MNZ078>079-086>088-094>096-022100-
   Southeast Minnesota

CITY           SKY/WX    TMP DP  RH WIND       PRES   REMARKS
ROCHESTER      CLOUDY    62  36  37 W3        30.06F
RED WING       SUNNY     66  30  26 W5        30.03F
STANTON        PTSUNNY   65  35  32 NW7       30.03F
DODGE CENTER   MOSUNNY   63  34  34 CALM      30.06S
WINONA         PTSUNNY   64  36  34 E3        30.05F
AUSTIN         PTSUNNY   59  39  47 CALM      30.06F
PRESTON        MOSUNNY   60  36  39 S3        30.07F
$$
ABBREVIATIONS USED IN REMARKS
   TC - TEMPERATURES IN CELSIUS
  WCI - WIND CHILL INDEX
   HX - HEAT INDEX
  VSB - VISIBILITY
$$




USA.gov is the U.S. government's official web portal to all federal, state and local government web resources and services.